Home > Weather > Saguenay > Past weeks

Flag for Canada Past Weather in Saguenay, Quebec, Canada — Yesterday and Last 2 Weeks

Now
80 °F

Warm.


Feels Like: 83 °F
Forecast: 60 / 77 °F
Wind: 3 mph from Northeast

Location: Jonquiere Airport

Current Time: Jul 27, 2016 at 1:22:12 PM

Latest Report: Jul 27, 2016 at 1:00 PM


Visibility: N/A

Pressure: 29.78 "Hg

Humidity: 68%

Dew Point: 69 °F

Location of SaguenayLocation

Past Weather in Saguenay — Graph

°F

Saguenay Temperature Yesterday

Maximum temperature yesterday: 76 °F (at 4:00 PM)
Minimum temperature yesterday: 60 °F (at 12:00 AM)
Average temperature yesterday: 67 °F

High & Low Weather Summary for the Past Weeks

 TemperatureHumidityPressure
High82 °F (Jul 12, 1:00 PM)100% (Jul 14, 3:00 PM)30.13 "Hg (Jul 14, 3:00 PM)
Low49 °F (Jul 16, 6:00 AM)30% (Jul 12, 1:00 PM)29.54 "Hg (Jul 14, 11:00 PM)
Average66 °F77%29.86 "Hg
* Reported Jul 12 1:00 PM — Jul 27 12:00 PM, Saguenay, Weather by CustomWeather, © 2016

Note: Actual official high and low records may vary slightly from our data, if they occured in-between our weather recording intervals... More about our weather records

Advertising

Saguenay Weather History for the Previous 24 Hours

Scroll right to see more
 ConditionsComfort  
Time TempWeatherWind HumidityBarometerVisibility
12:00 PM
Wed, Jul 27
75 °FMild.6 mph77%29.81 "HgN/A
11:00 AM75 °FMild.5 mph80%29.83 "HgN/A
10:00 AM71 °FMild.3 mph85%29.84 "HgN/A
9:00 AM65 °FMild.2 mph94%29.86 "HgN/A
8:00 AM63 °FMild.3 mph93%29.85 "HgN/A
7:00 AM62 °FMild.5 mph96%29.85 "HgN/A
6:00 AM61 °FCool.3 mph96%29.85 "HgN/A
5:00 AM61 °FCool.2 mph97%29.84 "HgN/A
4:00 AM61 °FCool.3 mph96%29.84 "HgN/A
3:00 AM62 °FMild.1 mph91%29.84 "HgN/A
2:00 AM65 °FMild.6 mph87%29.85 "HgN/A
1:00 AM64 °FMild.5 mph90%29.85 "HgN/A
12:00 AM66 °FMild.6 mph88%29.85 "HgN/A
11:00 PM
Tue, Jul 26
67 °FMild.7 mph88%29.83 "HgN/A
10:00 PM68 °FMild.8 mph87%29.82 "HgN/A
9:00 PM69 °FMild.7 mph84%29.81 "HgN/A
8:00 PM72 °FMild.7 mph81%29.79 "HgN/A
7:00 PM75 °FMild.9 mph70%29.78 "HgN/A
6:00 PM75 °FMild.8 mph67%29.78 "HgN/A
5:00 PM75 °FMild.7 mph68%29.76 "HgN/A
4:00 PM76 °FMild.5 mph68%29.76 "HgN/A
3:00 PM74 °FMild.6 mph73%29.76 "HgN/A
2:00 PM73 °FMild.8 mph78%29.76 "HgN/A
1:00 PM70 °FMild.8 mph79%29.77 "HgN/A
Weather by CustomWeather, © 2016

See weather overviewHow to use our weather pages